Other Public Products
Issued by NWS Grand Forks, ND

Home | Current Version | Previous Version | Text Only | Print | Product List | Glossary Off
Versions: 1 2 3 4 5 6 7 8 9 10 11 12 13 14 15 16 17 18 19 20 21 22 23 24 25 26 27 28 29 30 31 32 33 34 35 36 37 38 39 40 41 42 43 44 45 46 47 48 49 50

000
FPUS83 KFGF 172131
OPUFGF
PRAIRIE TO PINES WEATHER ROUNDUP
NATIONAL WEATHER SERVICE EASTERN NORTH DAKOTA/GRAND FORKS ND
400 PM CDT WED SEP 17 2014

 **SATELLITE DATA USED TO AUGMENT SKY COVER AT AUTOMATED STATIONS**
 *****  WEATHER ACROSS EASTERN NORTH DAKOTA  *****

CITY           SKY/WX    TMP DP  RH WIND       PRES   REMARKS
GRAND FORKS    MOSUNNY   65  50  58 NE12      30.02R
GRAND FORKS AF SUNNY     63  51  66 N10       30.03S
GRAND CITY NWS   N/A     66 N/A N/A N2          N/A
BUXTON           N/A     67  53  60 N9          N/A
DEVILS LAKE    SUNNY     61  46  59 E9        30.02S
FARGO          SUNNY     74  48  39 N13       29.96S
WAHPETON ARPT  CLEAR     73  37  27 NE6       29.95S
$$

 *****  WEATHER ACROSS CENTRAL AND WESTERN NORTH DAKOTA  *****

CITY           SKY/WX    TMP DP  RH WIND       PRES   REMARKS
JAMESTOWN      SUNNY     72  47  40 NE5       29.97S
BISMARCK       MOSUNNY   76  47  35 E8        29.97S
MINOT          SUNNY     68  50  52 NE12      29.99S
MINOT AFB      SUNNY     67  51  54 E12       29.99S
GARRISON         N/A     74  46  36 E7        29.97F
WILLISTON      SUNNY     77  39  25 SE10      29.93F
DICKINSON      PTSUNNY   72  46  39 SE12      29.96R
HETTINGER      LGT RAIN  67  50  54 SE8       29.97S
$$

 *****  OTHER OBSERVATIONS NORTHEAST NORTH DAKOTA  *****

CITY           SKY/WX    TMP DP  RH WIND       PRES   REMARKS
WALHALLA         N/A     55  45  67 NE9G16    30.07F
LANGDON        FAIR      57  43  58 E10       30.05S
CAVALIER       FAIR      57  45  62 NE10      30.06S
GRAFTON        FAIR      59  46  63 N12       30.04S
CANDO          FAIR      63  45  51 NE7       30.04S
FORT TOTTEN      N/A     63  50  62 E7        29.95
ROLLA          FAIR      59  43  55 NE9       30.06S
RUGBY          FAIR      64  48  55 SE10G16   30.02S
 ***** THE ABOVE OBSERVATIONS ARE NON NWS ARE NOT QUALITY
        CONTROLLED AND MAY MIS-REPORT RAIN FOR SNOW...
$$

 *****  OTHER OBSERVATIONS SOUTHEAST NORTH DAKOTA *****

CITY           SKY/WX    TMP DP  RH WIND       PRES   REMARKS
COOPERSTOWN    NOT AVBL
VALLEY CITY    FAIR      70  50  49 E10G17    29.98S
OAKES            N/A     73  45  35 NE12      29.96F
GWINNER        CLEAR     73  46  38 N10       29.97S
BUFFALO          N/A     69  45  41 NE9         N/A
WYNDMERE       NOT AVBL
 ***** THE ABOVE OBSERVATIONS ARE NON NWS ARE NOT QUALITY
       CONTROLLED AND MAY MIS-REPORT RAIN FOR SNOW...
$$

  *****  WEATHER ACROSS NORTHERN MINNESOTA  *****

CITY           SKY/WX    TMP DP  RH WIND       PRES   REMARKS
FLAG ISLAND    CLOUDY    46  39  76 NE10      30.09R
WARROAD        CLOUDY    48  43  81 NE9       30.09S
ROSEAU         MOSUNNY   54  43  66 E13G21    30.08S
HALLOCK        SUNNY     61  45  55 N9G16     30.04S
THF RVR FALLS  SUNNY     63  46  55 NE9       30.02S
HALSTAD          N/A     73  45  36 N10         N/A
FOSSTON        SUNNY     70  54  56 N8        30.00S
BAUDETTE       MOSUNNY   55  43  63 N13       30.07R
WASKISH        SUNNY     61  46  59 N7        30.02R
CROOKSTON      SUNNY     64  48  55 NE10      30.01S
$$
  *****  WEATHER ACROSS CENTRAL AND WEST MINNESOTA  *****

CITY           SKY/WX    TMP DP  RH WIND       PRES   REMARKS
BEMIDJI        MOSUNNY   64  51  62 N9        30.00R
PARK RAPIDS    SUNNY     73  43  33 N5        29.95S
WADENA         SUNNY     72  46  40 NE5       29.96S
DETROIT LAKES  SUNNY     72  43  35 N3        29.98R
MOORHEAD       SUNNY     73  46  38 N8        29.97S
FERGUS FALLS   SUNNY     73  39  29 NE8       29.95S
ELBOW LAKE     FAIR      72  52  50 E6        29.95S
MORRIS MN      MOSUNNY   73  52  46 CALM      29.93S
STAPLES        SUNNY     70  45  40 CALM      29.96S
WHEATON        MOSUNNY   72  52  49 NE5       29.96R HAZE
$$
  *****  WEATHER ELSEWHERE ACROSS MINNESOTA  *****

CITY           SKY/WX    TMP DP  RH WIND       PRES   REMARKS
DULUTH         PTSUNNY   49  43  80 E16       30.01R
INTRNTL FALLS  CLOUDY    52  41  66 N12       30.06R
ELY            CLOUDY    48  43  81 E7        30.05R
CLOQUET        CLOUDY    50  45  81 E12G21    30.01R
BRAINERD       SUNNY     71  48  43 NW5       29.96S
HIBBING        MOSUNNY   66  48  52 N10       29.99R
ALEXANDRIA     SUNNY     73  53  49 VRB7      29.97S
SAINT CLOUD    MOSUNNY   76  52  43 CALM      29.94S
MINNEAPOLIS    MOSUNNY   76  52  43 VRB3      29.94S
$$

  *****  WEATHER ACROSS SOUTH DAKOTA  *****

CITY           SKY/WX    TMP DP  RH WIND       PRES   REMARKS
SIOUX FALLS    PTSUNNY   79  56  45 VRB7      29.92S
BROOKINGS      NOT AVBL
WATERTOWN      SUNNY     73  51  46 VRB3      29.95S
HURON          MOSUNNY   78  47  33 N9        29.92S
SISSETON         N/A     74  52  46 MISG      29.94S
ABERDEEN       SUNNY     72  49  44 NE10      29.95S
MITCHELL       MOSUNNY   79  56  45 VRB6      29.92F
PIERRE         MOSUNNY   80  52  37 SE14G20   29.90S
MOBRIDGE       PTSUNNY   76  48  37 E8        29.92S
RAPID CITY     MOSUNNY   77  49  37 SE12      29.94F
$$

  *****  SOME WEATHER IN NEARBY STATES *****

CITY           SKY/WX    TMP DP  RH WIND       PRES   REMARKS
GLASGOW MT     SUNNY     79  48  33 SE12      29.85F
GREAT FALLS MT MOSUNNY   82  49  31 S5        29.84F
CHEYENNE WY    MOSUNNY   77  41  27 N24G31    30.09S
SCOTTSBLUFF NE MOSUNNY   88  40  18 W8        29.95F
OMAHA NE       MOSUNNY   79  60  52 VRB5      29.89F
DES MOINES IA  PTSUNNY   75  57  53 SE7       29.92F
DAVENPORT IA   SUNNY     69  50  50 CALM      29.98S
CHICAGO IL     MOSUNNY   69  45  41 CALM      29.98F
EAU CLAIRE WI  MOSUNNY   69  49  48 CALM      29.95S
LA CROSSE WI   SUNNY     71  53  52 S7        29.95S
$$

  *****  SOME NATIONAL WEATHER *****

CITY           SKY/WX    TMP DP  RH WIND       PRES   REMARKS
LA GUARDIA NY  MOSUNNY   72  41  32 W6        29.95S
RALEIGH NC     PTSUNNY   76  62  62 E6        29.93S
ATLANTA GA     PTSUNNY   85  60  42 NW9       29.90F
NEW ORLEANS LA CLOUDY    87  69  54 NE6       29.91F HX  91
OKLAHOMA CITY  CLOUDY    92  65  40 SW12      29.88F HX  94
ALBUQUERQUE NM LGT RAIN  67  58  72 N7        30.16F
SALT LAKE CITY MOSUNNY   93  37  14 VRB3      29.91F
LOS ANGELES CA MOSUNNY   81  58  45 W15       29.74F
BOISE ID       MOSUNNY   91  39  16 N5        29.81F
SEATTLE WA     CLOUDY    70  56  61 NW6       29.75F
$$

*** WEATHER ACROSS MANITOBA...SASKATCHEWAN AND ONTARIO ***
                ***ONTARIO***

CITY           SKY/WX    TMP DP  RH WIND       PRES   REMARKS
GERALDTON      PTSUNNY   45  30  57 W5        30.07R
THUNDER BAY    CLOUDY    46  37  71 E3        30.10R
SIOUX LOOKOUT  CLOUDY    43  34  70 E5        30.12R
TORONTO        PTSUNNY   68  45  42 W13       29.94S
BIG TROUT LK   CLOUDY    37  21  52 NW13      30.14S
PICKLE LAKE    PTSUNNY   45  21  39 VRB5      30.09S
DRYDEN         CLOUDY    45  36  70 NE7       30.11R
KENORA         PTSUNNY   45  37  76 NE8       30.11
$$
                *** MANITOBA***

CITY           SKY/WX    TMP DP  RH WIND       PRES   REMARKS
BRANDON        PTSUNNY   46  39  76 E10       30.10F
DAUPHIN        CLOUDY    45  39  81 E9        30.12F
ISLAND LAKE    MOSUNNY   43  23  45 NW3       30.16F
PILOT MOUND      N/A     55  41  58 E9          N/A
THE PAS        PTSUNNY   48  34  57 S8        30.10F
THOMPSON       PTSUNNY   46  25  42 W5        30.13F
WINNIPEG       CLOUDY    48  39  71 NE10      30.12S
LYNN LAKE      SUNNY     46  23  39 S9G17     30.05F
CHURCHILL      CLOUDY    36  23  60 NW14      30.15S
GILLAM         PTSUNNY   39  23  52 W6        30.16F
$$
                ***SASKATCHEWAN***

CITY           SKY/WX    TMP DP  RH WIND       PRES   REMARKS
ESTEVAN        MOSUNNY   63  50  63 SE14      29.99F
KINDERSLEY     MOSUNNY   73  46  38 E16G22    29.83F
LLOYDMINSTER   MOSUNNY   70  48  46 SE14      29.81F
PRINCE ALBERT  CLOUDY    50  45  81 SE10G17   29.97F
REGINA         MOSUNNY   66  48  52 SE17      29.94F
YORKTON        CLOUDY    52  43  71 SE9       30.05


USA.gov is the U.S. government's official web portal to all federal, state and local government web resources and services.